| time (UTC) | temp C | wind direction | speed KPH | gust KPH | rain 1hr cm | rain 24hr cm | rain mn cm | humidity % | barometer mb |
| 20260831084559 | 21 | 0 | 0.0 | 0.0 | 0.00 | 0.00 | 0.00 | 94 | 1020.5 |
| 20260831083110 | 22 | 0 | 0.0 | 0.0 | 0.00 | 0.00 | 0.00 | 93 | 1020.3 |
| 20260831081601 | 22 | 0 | 0.0 | 0.0 | 0.00 | 0.00 | 0.00 | 93 | 1020.3 |
| 20260831080123 | 22 | 0 | 0.0 | 0.0 | 0.00 | 0.00 | 0.00 | 94 | 1020.2 |
| 20260831074602 | 22 | 0 | 0.0 | 0.0 | 0.00 | 0.00 | 0.00 | 94 | 1020.3 |
| 20260831073059 | 22 | 0 | 0.0 | 0.0 | 0.00 | 0.00 | 0.00 | 94 | 1020.5 |
| 20260831071556 | 22 | 0 | 0.0 | 0.0 | 0.00 | 0.00 | 0.00 | 93 | 1020.3 |
| 20260831070052 | 22 | 0 | 0.0 | 0.0 | 0.00 | 0.00 | 0.00 | 93 | 1020.4 |
| 20260831064557 | 22 | 0 | 0.0 | 0.0 | 0.00 | 0.00 | 0.00 | 92 | 1020.4 |
| 20260831063111 | 23 | 0 | 0.0 | 4.8 | 0.00 | 0.00 | 0.00 | 91 | 1020.5 |
| 20260831061559 | 23 | 137 | 1.6 | 8.0 | 0.00 | 0.00 | 0.00 | 91 | 1020.6 |
| 20260831060056 | 23 | 138 | 1.6 | 6.4 | 0.00 | 0.00 | 0.00 | 91 | 1020.6 |
| 20260831054559 | 23 | 0 | 0.0 | 0.0 | 0.00 | 0.00 | 0.00 | 90 | 1020.8 |
| 20260831053130 | 23 | 0 | 0.0 | 4.8 | 0.00 | 0.00 | 0.00 | 90 | 1020.8 |
| 20260831051556 | 23 | 138 | 1.6 | 4.8 | 0.00 | 0.00 | 0.00 | 90 | 1020.7 |
| 20260831050055 | 23 | 0 | 0.0 | 6.4 | 0.00 | 0.00 | 0.00 | 89 | 1020.8 |
| 20260831044641 | 24 | 0 | 0.0 | 0.0 | 0.00 | 0.00 | 0.00 | 88 | 1020.7 |
| 20260831043057 | 24 | 0 | 0.0 | 0.0 | 0.00 | 0.00 | 0.00 | 87 | 1020.7 |
| 20260831041609 | 25 | 0 | 0.0 | 0.0 | 0.00 | 0.00 | 0.00 | 86 | 1020.8 |
| 20260831040104 | 25 | 0 | 0.0 | 3.2 | 0.00 | 0.00 | 0.00 | 85 | 1020.7 |
| 20260831034606 | 25 | 138 | 0.0 | 3.2 | 0.00 | 0.00 | 0.00 | 85 | 1020.8 |
| 20260831033110 | 25 | 138 | 1.6 | 4.8 | 0.00 | 0.00 | 0.00 | 84 | 1020.7 |
| 20260831031556 | 25 | 132 | 0.0 | 4.8 | 0.00 | 0.00 | 0.00 | 84 | 1020.7 |
| 20260831030052 | 25 | 0 | 0.0 | 0.0 | 0.00 | 0.00 | 0.00 | 84 | 1020.8 |
| 20260831024557 | 25 | 0 | 0.0 | 3.2 | 0.00 | 0.00 | 0.00 | 83 | 1020.6 |
| 20260831023100 | 25 | 132 | 1.6 | 3.2 | 0.00 | 0.00 | 0.00 | 82 | 1020.7 |
| 20260831021557 | 26 | 132 | 1.6 | 8.0 | 0.00 | 0.00 | 0.00 | 81 | 1020.5 |
| 20260831020053 | 26 | 136 | 4.8 | 11.3 | 0.00 | 0.00 | 0.00 | 78 | 1020.4 |
| 20260831014558 | 26 | 0 | 0.0 | 0.0 | 0.00 | 0.00 | 0.00 | 77 | 1020.4 |
| 20260831013058 | 26 | 0 | 0.0 | 0.0 | 0.00 | 0.00 | 0.00 | 77 | 1020.1 |
| 20260831011557 | 27 | 0 | 0.0 | 0.0 | 0.00 | 0.00 | 0.00 | 75 | 1020.2 |
| 20260831004607 | 28 | 0 | 0.0 | 0.0 | 0.00 | 0.00 | 0.00 | 71 | 1019.7 |
| 20260831003059 | 28 | 0 | 0.0 | 4.8 | 0.00 | 0.00 | 0.00 | 70 | 1019.7 |
| 20260831001555 | 28 | 0 | 0.0 | 0.0 | 0.00 | 0.00 | 0.00 | 69 | 1019.5 |
| 20260831000110 | 29 | 0 | 0.0 | 0.0 | 0.00 | 0.00 | 0.00 | 68 | 1019.6 |
| 20260830234606 | 30 | 0 | 0.0 | 0.0 | 0.00 | 0.00 | 0.00 | 66 | 1019.5 |
| 20260830233058 | 30 | 0 | 0.0 | 6.4 | 0.00 | 0.00 | 0.00 | 65 | 1019.4 |
| 20260830231602 | 31 | 143 | 3.2 | 8.0 | 0.00 | 0.00 | 0.00 | 63 | 1019.6 |
| 20260830230057 | 31 | 0 | 0.0 | 9.7 | 0.00 | 0.00 | 0.00 | 63 | 1019.7 |
| 20260830224552 | 31 | 139 | 1.6 | 9.7 | 0.00 | 0.00 | 0.00 | 62 | 1019.6 |
| 20260830223051 | 31 | 109 | 3.2 | 8.0 | 0.00 | 0.00 | 0.00 | 62 | 1019.6 |
| 20260830221557 | 31 | 132 | 1.6 | 11.3 | 0.00 | 0.00 | 0.00 | 62 | 1019.5 |
| 20260830220101 | 31 | 130 | 4.8 | 8.0 | 0.00 | 0.00 | 0.00 | 61 | 1019.6 |
| 20260830214554 | 32 | 131 | 3.2 | 8.0 | 0.00 | 0.00 | 0.00 | 61 | 1019.5 |
| 20260830213107 | 32 | 148 | 4.8 | 11.3 | 0.00 | 0.00 | 0.00 | 63 | 1019.5 |
| 20260830211605 | 32 | 0 | 0.0 | 9.7 | 0.00 | 0.00 | 0.00 | 62 | 1019.6 |
| 20260830204551 | 32 | 139 | 0.0 | 11.3 | 0.00 | 0.00 | 0.00 | 62 | 1019.8 |
| 20260830203051 | 32 | 105 | 4.8 | 11.3 | 0.00 | 0.00 | 0.00 | 63 | 1020.0 |
| 20260830201605 | 32 | 146 | 6.4 | 12.9 | 0.00 | 0.00 | 0.00 | 62 | 1020.0 |
| 20260830194558 | 31 | 150 | 6.4 | 11.3 | 0.00 | 0.00 | 0.00 | 64 | 1020.7 |
| 20260830193101 | 31 | 132 | 4.8 | 11.3 | 0.00 | 0.00 | 0.00 | 66 | 1020.9 |
| 20260830191558 | 31 | 128 | 3.2 | 12.9 | 0.00 | 0.00 | 0.00 | 64 | 1021.1 |
| 20260830190056 | 31 | 153 | 4.8 | 12.9 | 0.00 | 0.00 | 0.00 | 64 | 1021.3 |
| 20260830184558 | 31 | 0 | 1.6 | 8.0 | 0.00 | 0.00 | 0.00 | 68 | 1021.3 |
| 20260830183057 | 30 | 148 | 4.8 | 11.3 | 0.00 | 0.00 | 0.00 | 67 | 1021.6 |
| 20260830181557 | 31 | 141 | 1.6 | 6.4 | 0.00 | 0.00 | 0.00 | 66 | 1021.7 |
| 20260830180103 | 31 | 163 | 3.2 | 11.3 | 0.00 | 0.00 | 0.00 | 66 | 1021.8 |
| 20260830174617 | 31 | 0 | 0.0 | 8.0 | 0.00 | 0.00 | 0.00 | 65 | 1021.9 |
| 20260830173104 | 31 | 141 | 3.2 | 8.0 | 0.00 | 0.00 | 0.00 | 67 | 1022.0 |
| 20260830171603 | 30 | 0 | 3.2 | 11.3 | 0.00 | 0.00 | 0.00 | 68 | 1022.2 |
| 20260830170106 | 30 | 208 | 1.6 | 14.5 | 0.00 | 0.00 | 0.00 | 70 | 1022.5 |
| 20260830164600 | 30 | 152 | 4.8 | 14.5 | 0.00 | 0.00 | 0.00 | 71 | 1022.8 |
| 20260830163104 | 29 | 242 | 0.0 | 11.3 | 0.00 | 0.00 | 0.00 | 75 | 1022.8 |
| 20260830161621 | 28 | 194 | 3.2 | 6.4 | 0.00 | 0.00 | 0.00 | 77 | 1022.9 |
| 20260830160058 | 29 | 132 | 3.2 | 6.4 | 0.00 | 0.00 | 0.00 | 76 | 1023.0 |
| 20260830154555 | 28 | 128 | 3.2 | 8.0 | 0.00 | 0.00 | 0.00 | 78 | 1022.9 |
| 20260830153104 | 28 | 219 | 1.6 | 11.3 | 0.00 | 0.00 | 0.00 | 79 | 1022.9 |
| 20260830151556 | 28 | 200 | 3.2 | 17.7 | 0.00 | 0.00 | 0.00 | 78 | 1022.9 |
| 20260830150119 | 27 | 0 | 4.8 | 12.9 | 0.00 | 0.00 | 0.00 | 80 | 1022.8 |
| 20260830144559 | 27 | 141 | 4.8 | 11.3 | 0.00 | 0.00 | 0.00 | 81 | 1022.8 |
| 20260830143101 | 26 | 136 | 3.2 | 11.3 | 0.00 | 0.00 | 0.00 | 85 | 1022.8 |
| 20260830141602 | 26 | 138 | 4.8 | 12.9 | 0.00 | 0.00 | 0.00 | 85 | 1022.8 |
| 20260830134555 | 25 | 147 | 4.8 | 12.9 | 0.00 | 0.00 | 0.00 | 88 | 1022.6 |
| 20260830133100 | 24 | 130 | 3.2 | 11.3 | 0.00 | 0.00 | 0.00 | 88 | 1022.6 |
| 20260830131603 | 24 | 146 | 4.8 | 11.3 | 0.00 | 0.00 | 0.00 | 90 | 1022.5 |
| 20260830130110 | 23 | 150 | 4.8 | 12.9 | 0.00 | 0.00 | 0.00 | 91 | 1022.5 |
| 20260830124602 | 23 | 115 | 6.4 | 14.5 | 0.00 | 0.00 | 0.00 | 92 | 1022.4 |
| 20260830123057 | 22 | 155 | 6.4 | 12.9 | 0.00 | 0.00 | 0.00 | 93 | 1022.4 |
| 20260830121602 | 22 | 143 | 3.2 | 12.9 | 0.00 | 0.00 | 0.00 | 93 | 1022.0 |
| 20260830114609 | 22 | 147 | 4.8 | 8.0 | 0.00 | 0.00 | 0.00 | 94 | 1021.7 |
| 20260830113055 | 22 | 133 | 3.2 | 8.0 | 0.00 | 0.00 | 0.00 | 94 | 1021.7 |
| 20260830111558 | 22 | 139 | 0.0 | 6.4 | 0.00 | 0.00 | 0.00 | 94 | 1021.5 |
| 20260830110057 | 22 | 0 | 0.0 | 0.0 | 0.00 | 0.00 | 0.00 | 94 | 1021.5 |
| 20260830104555 | 22 | 0 | 0.0 | 0.0 | 0.00 | 0.00 | 0.00 | 93 | 1021.4 |
| 20260830103100 | 22 | 0 | 0.0 | 4.8 | 0.00 | 0.00 | 0.00 | 93 | 1021.3 |
| 20260830101602 | 22 | 136 | 0.0 | 8.0 | 0.00 | 0.00 | 0.00 | 93 | 1021.3 |
| 20260830100100 | 22 | 139 | 3.2 | 6.4 | 0.00 | 0.00 | 0.00 | 92 | 1021.3 |
| 20260830094557 | 22 | 144 | 1.6 | 8.0 | 0.00 | 0.00 | 0.00 | 92 | 1021.0 |
| 20260830093055 | 22 | 148 | 3.2 | 8.0 | 0.00 | 0.00 | 0.00 | 92 | 1021.0 |
| 20260830091558 | 22 | 132 | 3.2 | 6.4 | 0.00 | 0.00 | 0.00 | 92 | 1021.0 |
| 20260830090122 | 22 | 137 | 3.2 | 6.4 | 0.00 | 0.00 | 0.00 | 92 | 1021.0 |